This is the latest recevied weather packets stored in our database for station/object EA1GHG-11. If no packets are shown the sender has not sent any weather packets the latest 10 day(s).
| Time | Temp. | Humidity | Pressure | Rain* | Wind** | Luminosity | Snow |
|---|---|---|---|---|---|---|---|
| 1777910817 | 16.67° C | 100% | 1018.4 hPa | - | - | - | - |
| 1777909317 | 16.67° C | 100% | 1018.4 hPa | - | - | - | - |
| 1777907817 | 15° C | 100% | 1018.5 hPa | - | - | - | - |
| 1777906317 | 15.56° C | 99% | 1018.4 hPa | - | - | - | - |
| 1777904817 | 15° C | 100% | 1018.5 hPa | - | - | - | - |
| 1777903317 | 15.56° C | 100% | 1018.6 hPa | - | - | - | - |
| 1777901816 | 15.56° C | 100% | 1018.7 hPa | - | - | - | - |
| 1777900316 | 17.78° C | 100% | 1018.6 hPa | - | - | - | - |
| 1777898816 | 16.67° C | 100% | 1018.8 hPa | - | - | - | - |
| 1777897315 | 16.67° C | 100% | 1018.8 hPa | - | - | - | - |
| 1777896717 | 16.67° C | 100% | 1018.9 hPa | - | - | - | - |
| 1777895217 | 17.22° C | 100% | 1019 hPa | - | - | - | - |
| 1777893717 | 15.56° C | 100% | 1019.4 hPa | - | - | - | - |
| 1777892217 | 13.33° C | 100% | 1019.6 hPa | - | - | - | - |
| 1777890717 | 15° C | 100% | 1019.4 hPa | - | - | - | - |
| 1777889215 | 15.56° C | 100% | 1019.2 hPa | - | - | - | - |
| 1777887715 | 15.56° C | 100% | 1019.2 hPa | - | - | - | - |
| 1777886215 | 13.33° C | 100% | 1019.1 hPa | - | - | - | - |
| 1777884715 | 15.56° C | 100% | 1019.1 hPa | - | - | - | - |
| 1777883215 | 13.89° C | 100% | 1019.1 hPa | - | - | - | - |
| 1777881715 | 15° C | 100% | 1019 hPa | - | - | - | - |
| 1777880215 | 13.33° C | 100% | 1019.1 hPa | - | - | - | - |
| 1777878715 | 11.67° C | 100% | 1019 hPa | - | - | - | - |
| 1777877215 | 11.11° C | 100% | 1018.8 hPa | - | - | - | - |
| 1777875715 | 10° C | 100% | 1018.8 hPa | - | - | - | - |
* Rain since midnight (hover to see other rain measurements)
** Current wind speed in m/s (hover to see current wind gust speed)